WX9WTF Weather Reports


time (UTC)temp
C
wind
direction
speed
KPH
gust
KPH
rain 1hr
cm
rain 24hr
cm
rain mn
cm
humidity
%
barometer
mb
20260505140358 8 57 6.4 12.9 0.23 1.60 1.60 88 1012.7
20260505124811 9 52 9.7 11.3 0.18 1.47 1.47 85 1010.3
20260505124308 10 67 3.2 14.5 0.13 1.47 1.47 83 1010.0
20260505123804 10 80 8.0 12.9 0.00 1.45 1.45 83 1009.8
20260505123301 9 73 6.4 9.7 0.00 1.45 1.45 82 1010.3
20260505122757 9 33 9.7 9.7 0.00 1.45 1.45 83 1010.6
20260505122255 9 49 14.5 14.5 0.00 1.45 1.45 83 1010.5
20260505121751 9 64 6.4 14.5 0.00 1.45 1.45 82 1010.4
20260505121248 9 41 9.7 12.9 0.00 1.45 1.45 82 1010.4
20260505120744 9 48 8.0 9.7 0.00 1.45 1.45 81 1010.1
20260505120240 10 67 8.0 9.7 0.00 1.45 1.45 81 1009.9
20260505115739 10 79 6.4 9.7 0.00 1.45 1.45 81 1010.1
20260505115237 9 69 8.0 8.0 0.00 1.45 1.45 80 1009.9
20260505114734 9 56 9.7 12.9 0.00 1.45 1.45 80 1009.9
20260505114230 10 56 8.0 16.1 0.00 1.45 1.45 80 1009.6
20260505113727 9 47 14.5 20.9 0.00 1.45 1.45 80 1010.1
20260505113223 9 132 4.8 11.3 0.00 1.45 1.45 81 1010.1
20260505112720 9 87 6.4 17.7 0.00 1.45 1.45 80 1009.8
20260505112218 9 65 14.5 19.3 0.00 1.45 1.45 80 1009.9
20260505111717 9 80 9.7 14.5 0.00 1.45 1.45 80 1009.7
20260505111214 9 46 12.9 19.3 0.00 1.45 1.45 80 1009.4
20260505110709 10 23 8.0 20.9 0.00 1.45 1.45 81 1009.4
20260505110207 10 65 9.7 14.5 0.00 1.45 1.45 80 1009.4
20260505102142 10 69 8.0 20.9 0.00 1.45 1.45 79 1009.5
20260505101641 10 44 14.5 20.9 0.00 1.45 1.45 80 1009.4
20260505101137 10 57 8.0 16.1 0.00 1.45 1.45 82 1009.3
20260505100633 9 60 9.7 14.5 0.00 1.45 1.45 83 1009.5
20260505100130 9 36 9.7 22.5 0.00 1.45 1.45 83 1009.5
20260505095626 9 58 8.0 24.1 0.00 1.45 1.45 84 1009.4
20260505095123 9 23 11.3 14.5 0.00 1.45 1.45 84 1009.4
20260505094620 9 68 8.0 24.1 0.00 1.45 1.45 84 1009.0
20260505094116 9 55 11.3 20.9 0.00 1.45 1.45 84 1008.8
20260505093612 9 36 9.7 24.1 0.00 1.45 1.45 85 1008.8
20260505093110 9 25 6.4 22.5 0.00 1.45 1.45 87 1008.7
20260505092607 8 21 11.3 20.9 0.00 1.45 1.45 89 1008.5
20260505092106 8 32 9.7 22.5 0.00 1.45 1.45 90 1008.5
20260505091602 8 344 6.4 20.9 0.00 1.45 1.45 91 1008.4
20260505091100 8 12 6.4 12.9 0.00 1.45 1.45 93 1008.7
20260505090558 8 8 3.2 12.9 0.00 1.45 1.45 93 1008.6
20260505090056 8 21 8.0 14.5 0.00 1.45 1.45 93 1008.6
20260505085553 8 328 11.3 17.7 0.00 1.45 1.45 94 1008.2
20260505085051 8 23 9.7 20.9 0.00 1.45 1.45 95 1008.0
20260505084549 8 19 11.3 14.5 0.00 1.45 1.45 96 1007.0
20260505084047 8 61 9.7 27.4 0.00 1.45 1.45 96 1006.0
20260505083543 8 32 11.3 25.7 0.00 1.45 1.45 96 1005.8
20260505083040 8 29 17.7 22.5 0.05 1.45 1.45 97 1005.2
20260505082536 8 75 20.9 29.0 0.18 1.45 1.45 97 1004.2
20260505082033 8 54 19.3 37.0 0.48 1.45 1.45 97 1005.1
20260505081529 8 45 16.1 19.3 0.79 1.42 1.42 97 1006.8
20260505081027 8 32 12.9 14.5 0.66 1.35 1.35 97 1008.3
20260505080523 9 41 4.8 11.3 0.61 1.27 1.27 97 1008.9
20260505080020 9 59 8.0 12.9 0.66 1.22 1.22 97 1009.4
20260505075515 9 54 4.8 6.4 0.61 1.17 1.17 96 1009.9
20260505075013 10 340 14.5 24.1 0.30 1.09 1.09 96 1009.9
20260505074510 10 3 4.8 9.7 0.23 1.07 1.07 97 1010.2
20260505074007 10 343 8.0 14.5 0.30 1.04 1.04 97 1010.1
20260505073504 10 291 9.7 17.7 0.30 1.02 1.02 97 1010.3
20260505073002 10 291 4.8 9.7 0.30 0.99 0.99 97 1009.4
20260505072458 11 254 4.8 6.4 0.36 0.97 0.97 97 1008.9
20260505071954 11 332 3.2 6.4 0.30 0.94 0.94 97 1008.0
20260505071450 11 12 6.4 12.9 0.23 0.89 0.89 96 1007.6
20260505070948 11 28 6.4 9.7 0.43 0.89 0.89 96 1007.6
20260505070444 11 28 8.0 14.5 0.61 0.86 0.86 95 1007.6
20260505065940 11 28 12.9 14.5 0.61 0.81 0.81 94 1007.9
20260505065437 11 15 6.4 9.7 0.79 0.74 0.74 94 1008.2
20260505064933 11 44 12.9 17.7 2.03 0.69 0.69 92 1007.6
20260505064431 12 37 12.9 22.5 2.77 0.61 0.61 91 1007.1
20260505063929 12 332 20.9 32.2 1.80 0.41 0.41 87 1007.3
20260505063425 13 1 20.9 30.6 0.30 0.15 0.15 84 1006.8
20260505062922 13 330 17.7 25.7 0.13 0.10 0.10 81 1006.7
20260505062419 15 334 16.1 17.7 0.13 0.10 0.10 78 1006.5
20260505061915 15 342 8.0 12.9 0.30 0.10 0.10 75 1006.4
20260505061414 15 310 6.4 12.9 0.30 0.08 0.08 73 1006.1
20260505060911 16 26 9.7 17.7 0.13 0.05 0.05 71 1005.8
20260505060408 17 37 9.7 19.3 0.05 0.03 0.03 67 1005.5
20260505055904 18 60 12.9 14.5 0.13 0.03 0.03 64 1005.2
20260505055400 20 36 9.7 22.5 0.05 0.00 0.00 61 1005.1
20260505054857 20 27 3.2 8.0 0.00 0.00 0.00 61 1004.9
20260505054354 20 23 3.2 16.1 0.00 0.00 0.00 62 1004.8
20260505053853 20 342 22.5 37.0 0.00 0.00 0.00 63 1005.2
20260505053349 19 266 9.7 12.9 0.00 0.00 0.00 78 1004.8
20260505052846 19 333 11.3 14.5 0.00 0.00 0.00 78 1004.9
20260505052343 18 329 6.4 6.4 0.00 0.00 0.00 81 1004.5
20260505051840 18 142 0.0 0.0 0.00 0.00 0.00 82 1004.4
20260505051337 18 22 0.0 0.0 0.00 0.00 0.00 83 1003.9
20260505050835 18 44 0.0 3.2 0.00 0.00 0.00 83 1003.6
20260505050334 18 50 0.0 1.6 0.00 0.00 0.00 82 1003.5
20260505041301 19 141 3.2 3.2 0.00 0.00 0.00 81 1004.1
20260505040758 19 165 0.0 3.2 0.00 0.00 0.00 81 1004.1
20260505040255 19 145 1.6 3.2 0.00 0.00 0.00 81 1004.2
20260505035752 19 147 0.0 4.8 0.00 0.00 0.00 81 1004.4
20260505035248 19 115 0.0 3.2 0.00 0.00 0.00 82 1004.2
20260505034745 19 149 0.0 0.0 0.00 0.00 0.00 81 1004.2
20260505034242 19 17 0.0 3.2 0.00 0.00 0.00 81 1004.1
20260505033738 19 150 0.0 3.2 0.00 0.00 0.00 81 1004.5
20260505033236 19 117 0.0 3.2 0.00 0.00 0.00 81 1004.4
20260505032734 20 160 0.0 1.6 0.00 0.00 0.00 81 1004.4
20260505032230 20 103 1.6 3.2 0.00 0.00 0.00 80 1004.0
20260505031727 20 114 1.6 3.2 0.00 0.00 0.00 79 1004.2
20260505031223 20 110 0.0 1.6 0.00 0.00 0.00 79 1004.0
20260505030721 20 109 0.0 1.6 0.00 0.00 0.00 78 1004.1
20260505030217 20 118 1.6 3.2 0.00 0.00 0.00 77 1003.9
20260505025713 20 31 0.0 1.6 0.00 0.00 0.00 76 1004.1
20260505025211 21 128 0.0 1.6 0.00 0.00 0.00 75 1003.9
20260505024709 21 162 0.0 4.8 0.00 0.00 0.00 75 1003.9
20260505024206 21 178 0.0 4.8 0.00 0.00 0.00 75 1003.7
20260505023703 20 191 0.0 3.2 0.00 0.00 0.00 76 1003.5
20260505023200 20 140 0.0 3.2 0.00 0.00 0.00 76 1003.5
20260505022658 20 15 0.0 1.6 0.00 0.00 0.00 76 1003.6
20260505022154 20 225 0.0 3.2 0.00 0.00 0.00 75 1003.3
20260505021651 21 129 0.0 0.0 0.00 0.00 0.00 74 1003.3
20260505021148 21 120 0.0 0.0 0.00 0.00 0.00 72 1003.4
20260505020643 21 241 0.0 3.2 0.00 0.00 0.00 71 1003.3
20260505020140 21 129 0.0 1.6 0.00 0.00 0.00 71 1003.2
20260505015637 21 164 0.0 1.6 0.00 0.00 0.00 70 1003.1
20260505015133 21 286 1.6 1.6 0.00 0.00 0.00 70 1003.1
20260505014630 21 195 0.0 0.0 0.00 0.00 0.00 70 1003.2
20260505014122 21 129 0.0 0.0 0.00 0.00 0.00 70 1002.9
20260505013620 21 71 0.0 0.0 0.00 0.00 0.00 69 1002.6
20260505013116 22 32 0.0 0.0 0.00 0.00 0.00 69 1002.6
20260505012614 22 129 0.0 0.0 0.00 0.00 0.00 68 1002.6
20260505012105 22 49 0.0 0.0 0.00 0.00 0.00 67 1002.4
20260505011601 22 49 0.0 0.0 0.00 0.00 0.00 66 1002.4
20260505011058 22 49 0.0 0.0 0.00 0.00 0.00 65 1002.3
20260505010553 22 49 0.0 0.0 0.00 0.00 0.00 64 1002.1
20260505010050 23 217 0.0 0.0 0.00 0.00 0.00 63 1002.4
20260505005546 23 230 0.0 0.0 0.00 0.00 0.00 62 1002.1
20260505005044 23 230 0.0 0.0 0.00 0.00 0.00 61 1002.2
20260505004540 25 15 0.0 0.0 0.00 0.00 0.00 59 1002.0
20260505004038 25 15 0.0 0.0 0.00 0.00 0.00 58 1002.0
20260505003535 25 217 0.0 1.6 0.00 0.00 0.00 58 1001.8
20260505003032 25 135 0.0 0.0 0.00 0.00 0.00 58 1001.9
20260505002532 25 164 0.0 0.0 0.00 0.00 0.00 58 1001.9
20260505002032 25 164 0.0 0.0 0.00 0.00 0.00 58 1002.0
20260505001528 25 167 1.6 3.2 0.00 0.00 0.00 58 1002.0
20260505001025 25 276 0.0 0.0 0.00 0.00 0.00 58 1001.9
20260505000523 25 147 0.0 1.6 0.00 0.00 0.00 57 1001.9
20260505000020 25 147 0.0 1.6 0.00 0.00 0.00 57 1002.0
20260504235517 25 164 3.2 4.8 0.00 0.00 0.00 56 1002.0
20260504235013 26 223 0.0 3.2 0.00 0.00 0.00 55 1001.8
20260504234510 26 233 0.0 3.2 0.00 0.00 0.00 56 1002.1
20260504234007 26 261 0.0 3.2 0.00 0.00 0.00 55 1002.0
20260504233502 26 264 3.2 4.8 0.00 0.00 0.00 52 1002.0
20260504233000 26 302 0.0 3.2 0.00 0.00 0.00 54 1001.9
20260504232457 26 193 1.6 3.2 0.00 0.00 0.00 51 1002.1
20260504231954 27 344 3.2 6.4 0.00 0.00 0.00 50 1002.1
20260504231450 27 207 0.0 6.4 0.00 0.00 0.00 47 1001.9
20260504230947 27 252 3.2 8.0 0.00 0.00 0.00 45 1002.0
20260504230443 28 190 4.8 6.4 0.00 0.00 0.00 48 1002.1
20260504225943 28 258 4.8 9.7 0.00 0.00 0.00 44 1002.0
20260504225439 28 245 4.8 4.8 0.00 0.00 0.00 48 1002.1
20260504224936 28 244 1.6 4.8 0.00 0.00 0.00 49 1002.1
20260504224432 28 240 4.8 11.3 0.00 0.00 0.00 46 1002.1
20260504223930 28 249 3.2 3.2 0.00 0.00 0.00 47 1001.9
20260504223425 28 259 3.2 8.0 0.00 0.00 0.00 46 1002.1
20260504222921 28 275 4.8 12.9 0.00 0.00 0.00 46 1002.1
20260504222419 28 259 3.2 4.8 0.00 0.00 0.00 46 1002.1
20260504221917 28 235 3.2 6.4 0.00 0.00 0.00 46 1002.2
20260504221413 28 133 6.4 6.4 0.00 0.00 0.00 46 1002.2
20260504220910 27 253 6.4 16.1 0.00 0.00 0.00 48 1002.1
20260504220407 27 235 4.8 9.7 0.00 0.00 0.00 47 1002.0
20260504215904 28 231 3.2 17.7 0.00 0.00 0.00 45 1002.2
20260504215401 28 273 3.2 8.0 0.00 0.00 0.00 46 1002.4
20260504214857 28 277 6.4 6.4 0.00 0.00 0.00 48 1002.4
20260504214354 28 210 3.2 4.8 0.00 0.00 0.00 47 1002.4
20260504213851 28 240 3.2 6.4 0.00 0.00 0.00 47 1002.3
20260504213346 28 245 4.8 8.0 0.00 0.00 0.00 45 1002.5
20260504212844 28 238 3.2 8.0 0.00 0.00 0.00 49 1002.5
20260504212340 28 179 3.2 4.8 0.00 0.00 0.00 51 1002.4
20260504211838 28 239 1.6 3.2 0.00 0.00 0.00 47 1002.6
20260504211333 27 235 3.2 4.8 0.00 0.00 0.00 47 1002.7
20260504210831 27 220 3.2 9.7 0.00 0.00 0.00 49 1002.7
20260504210328 27 245 9.7 9.7 0.00 0.00 0.00 47 1002.7
20260504205825 27 232 4.8 6.4 0.00 0.00 0.00 47 1002.8
20260504205323 27 261 3.2 9.7 0.00 0.00 0.00 45 1002.8
20260504204821 27 237 3.2 8.0 0.00 0.00 0.00 47 1002.8
20260504204319 28 191 0.0 6.4 0.00 0.00 0.00 44 1002.9
20260504203818 28 255 8.0 8.0 0.00 0.00 0.00 46 1002.8
20260504203315 28 274 3.2 4.8 0.00 0.00 0.00 46 1003.1
20260504202810 28 190 4.8 4.8 0.00 0.00 0.00 45 1002.9
20260504202308 28 185 3.2 12.9 0.00 0.00 0.00 46 1002.9
20260504201804 28 246 3.2 6.4 0.00 0.00 0.00 46 1003.0
20260504201302 28 232 3.2 8.0 0.00 0.00 0.00 45 1003.0
20260504200759 28 292 8.0 14.5 0.00 0.00 0.00 43 1003.0
20260504200255 28 241 6.4 6.4 0.00 0.00 0.00 47 1003.2
20260504195752 28 208 3.2 6.4 0.00 0.00 0.00 48 1003.2
20260504195247 27 266 3.2 8.0 0.00 0.00 0.00 45 1003.2
20260504194745 27 255 3.2 8.0 0.00 0.00 0.00 47 1003.0
20260504194241 28 203 0.0 4.8 0.00 0.00 0.00 50 1003.3
20260504193737 27 205 3.2 6.4 0.00 0.00 0.00 45 1003.3
20260504193235 27 195 3.2 3.2 0.00 0.00 0.00 49 1003.3
20260504192733 27 253 4.8 9.7 0.00 0.00 0.00 49 1003.2
20260504192231 27 171 6.4 9.7 0.00 0.00 0.00 50 1003.3
20260504191729 27 241 3.2 6.4 0.00 0.00 0.00 48 1003.4
20260504191226 27 231 4.8 6.4 0.00 0.00 0.00 48 1003.4
20260504190721 26 262 6.4 12.9 0.00 0.00 0.00 47 1003.7
20260504190218 27 256 6.4 8.0 0.00 0.00 0.00 48 1003.7
20260504185714 26 235 4.8 6.4 0.00 0.00 0.00 47 1003.6
20260504185211 26 195 4.8 8.0 0.00 0.00 0.00 50 1003.5
20260504184707 26 244 9.7 16.1 0.00 0.00 0.00 49 1003.7
20260504184203 26 250 6.4 11.3 0.00 0.00 0.00 50 1003.8
20260504183659 26 239 3.2 6.4 0.00 0.00 0.00 46 1003.9
20260504183156 26 201 4.8 8.0 0.00 0.00 0.00 47 1003.9
20260504182654 26 256 9.7 19.3 0.00 0.00 0.00 47 1003.8
20260504182151 26 240 6.4 11.3 0.00 0.00 0.00 50 1003.6
20260504181649 25 252 6.4 6.4 0.00 0.00 0.00 48 1003.9
20260504181146 25 258 6.4 9.7 0.00 0.00 0.00 49 1004.0
20260504180645 26 209 0.0 6.4 0.00 0.00 0.00 50 1003.8
20260504180144 25 274 3.2 6.4 0.00 0.00 0.00 51 1004.1
20260504175640 25 195 6.4 6.4 0.00 0.00 0.00 50 1004.2
20260504175137 25 181 3.2 8.0 0.00 0.00 0.00 51 1004.2
20260504174636 26 186 1.6 9.7 0.00 0.00 0.00 55 1004.1
20260504174131 25 185 0.0 6.4 0.00 0.00 0.00 50 1004.0
20260504173629 25 172 3.2 4.8 0.00 0.00 0.00 57 1004.1
20260504173126 25 170 3.2 9.7 0.00 0.00 0.00 54 1003.9
20260504172622 25 251 6.4 8.0 0.00 0.00 0.00 48 1004.0
20260504172119 25 202 3.2 6.4 0.00 0.00 0.00 49 1004.0
20260504171616 25 236 4.8 9.7 0.00 0.00 0.00 51 1004.5
20260504171113 25 269 6.4 16.1 0.00 0.00 0.00 51 1004.1
20260504170609 25 244 1.6 9.7 0.00 0.00 0.00 55 1004.4
20260504170107 25 239 4.8 8.0 0.00 0.00 0.00 49 1004.4
20260504150952 22 217 4.8 4.8 0.00 0.00 0.00 58 1004.8
20260504150449 21 158 4.8 4.8 0.00 0.00 0.00 58 1004.9